Location: Eck am Berg
(48.9971°N, 10.3514°E)
Time: 15:58:06
(UTC+00:00)

Daily predictions for brighter satellites

Satellite Brightness Start Highest point End
(mag) Time Altitude Azimuth Time Altitude Azimuth Time Altitude Azimuth
Lacrosse 4 Rocket 2.4 15:50:44 10° NNW 15:54:29 27° NE 15:58:09 10° ESE
Cosmos 1825 Rocket 4.0 15:52:33 10° NNW 15:56:51 67° W 16:01:08 10° S
ATLAS 2AS CENTAUR R/B 3.6 15:51:06 10° NW 15:57:12 30° NNE 16:03:03 10° E
Cosmos 1500 3.5 15:56:19 10° N 15:59:40 38° ENE 16:02:59 10° SE
Cosmos 1862 3.3 15:56:50 10° N 16:00:45 87° W 16:04:41 10° S
Cosmos 1544 2.8 15:58:02 10° N 16:01:16 58° ENE 16:04:28 10° SSE
CZ-4B R/B 4.4 15:57:19 10° ESE 16:01:21 25° ENE 16:05:18 10° N
USA 276 3.7 16:00:01 10° S 16:01:40 17° SE 16:03:22 10° ESE
Cosmos 405 Rocket 2.7 15:58:45 10° S 16:02:29 60° E 16:06:18 10° NNE
Cosmos 2082 4.0 15:59:48 10° S 16:05:10 50° ESE 16:10:36 10° NE
Cosmos 407 Rocket 4.3 16:04:54 10° N 16:09:20 28° NE 16:13:43 10° ESE
H-2A R/B 4.2 16:05:20 10° SSW 16:09:43 29° W 16:14:03 10° NW
Cosmos 2251 Rocket 4.2 16:08:03 10° N 16:12:49 32° NE 16:17:36 10° ESE
YAOGAN 1 4.5 16:14:07 10° NE 16:14:14 10° NE 16:14:39 10° NE
USA 306 1.4 16:15:43 10° WNW 16:17:57 70° SSW 16:20:03 10° SE
CZ-2D R/B 3.4 16:19:53 10° S 16:23:33 72° W 16:27:14 10° NNW
Cosmos 1238 Rocket 4.2 16:22:12 10° SW 16:25:31 33° WNW 16:28:30 10° N
SL-8 R/B 4.0 16:21:18 10° W 16:26:02 68° SSW 16:30:48 10° ESE
Aureole 3 Rocket 4.2 16:23:06 10° NNW 16:27:38 45° W 16:31:04 10° SSW
SMAP 3.0 16:24:26 10° SSE 16:29:03 73° ENE 16:33:43 10° N
Cosmos 1076 Rocket 3.6 16:26:23 10° N 16:30:46 84° W 16:35:07 10° S
ISS -2.7 16:28:37 10° WNW 16:31:52 46° SSW 16:35:06 10° SE
Cosmos 1437 Rocket 3.5 16:28:44 10° NNW 16:32:21 52° W 16:36:01 10° S
APEX 4.2 16:30:29 10° SSE 16:32:26 16° ESE 16:32:56 16° E
Cosmos 1812 3.4 16:30:12 10° SSE 16:33:27 30° E 16:36:21 12° NNE
Cosmos 2263 Rocket 2.2 16:28:20 10° SSW 16:33:51 71° ESE 16:39:26 10° NNE
CZ-2C R/B 2.9 16:31:16 10° S 16:34:49 68° WSW 16:38:25 10° NNW
Cosmos 1844 Rocket 4.1 16:31:33 10° SE 16:35:01 17° E 16:36:38 15° ENE
USA 305 2.5 16:31:29 10° WNW 16:35:19 82° NNE 16:39:10 10° ESE
SOZ 3.9 16:34:37 10° WSW 16:36:46 89° SE 16:38:48 19° ENE
Meteor 1-20 Rocket 4.3 16:32:29 10° N 16:37:55 52° ENE 16:43:25 10° SSE
Cosmos 1607 4.2 16:33:00 10° SW 16:39:20 76° NW 16:45:38 11° NE
CORIOLIS 4.1 16:34:06 10° SSE 16:39:27 87° ENE 16:44:52 10° NNW
USA 234 3.7 16:34:42 14° ENE 16:40:05 46° SE 16:46:18 10° SSW
Cosmos 2227 Rocket 3.2 16:34:58 10° SW 16:40:20 43° NW 16:45:44 10° NNE
Lacrosse 5 3.5 16:38:09 10° SSE 16:41:30 18° ESE 16:43:23 15° E
SL-16 R/B 4.5 16:36:56 10° N 16:41:47 24° NW 16:46:38 10° WSW
Cosmos 1023 Rocket 4.4 16:36:47 10° NNW 16:41:56 64° ENE 16:46:59 10° SE
Cosmos 1812 Rocket 4.0 16:41:27 10° SSE 16:45:27 38° E 16:49:24 11° NNE
ATLAS CENTAUR R/B 2.6 16:43:38 10° NW 16:47:43 87° SSW 16:55:43 10° SE
CZ-4B R/B 4.3 16:49:40 20° NE 16:49:40 20° NE 16:52:14 10° NNE
Cosmos 1603 3.7 16:46:21 10° NNW 16:52:00 59° ENE 16:57:35 10° SE
Helios 1A 3.1 16:53:54 14° NNE 16:57:21 49° E 17:01:22 10° S
BREEZE-M DEB (TANK) 3.8 16:53:55 10° WSW 16:57:45 77° NNW 17:07:14 19° ENE
Meteor 1-31 Rocket 3.1 16:54:39 10° S 16:58:19 65° WSW 17:02:01 10° NNW
ADEOS 3.9 16:54:57 10° SE 16:59:47 40° ENE 17:04:39 10° N
RESURS DK-1 3.7 16:57:37 10° N 17:00:24 21° NE 17:00:24 21° NE
Cosmos 1666 3.6 17:00:19 10° NNW 17:03:44 46° W 17:07:06 10° SSW
SL-16 R/B 4.3 16:59:54 10° NW 17:04:43 29° WSW 17:09:30 10° SSW
Cosmos 1140 Rocket 3.5 17:03:54 10° NNW 17:09:07 84° WSW 17:14:16 10° SSE
COSMO-SKYMED 1 2.8 17:11:14 25° NE 17:13:28 48° E 17:17:39 10° S
Cosmos 1553 Rocket 4.5 17:08:07 10° N 17:13:55 36° ENE 17:19:37 10° SE
Cosmos 1782 3.0 17:10:15 10° SSE 17:13:58 45° E 17:14:39 40° ENE
CBERS 1 LM4 rocket 4.2 17:12:05 10° SSE 17:16:53 80° ENE 17:21:38 10° NNW
Cosmos 1943 3.5 17:11:27 10° NNW 17:17:04 70° WSW 17:22:40 10° SSE
Cosmos 220 Rocket 4.2 17:14:20 10° NNW 17:18:31 46° ENE 17:19:31 38° E
Cosmos-2242 3.2 17:17:10 10° SSW 17:21:30 74° W 17:25:51 10° N
Cosmos 2026 Rocket 4.0 17:18:32 10° S 17:24:40 62° E 17:30:55 10° NNE
CZ-4 R/B 4.3 17:22:01 10° SSE 17:26:06 85° ENE 17:30:13 10° NNW
Radarsat Rocket 3.9 17:20:31 10° SSE 17:26:20 89° ENE 17:32:30 10° NNW
CZ-4B DEB 4.5 17:23:47 18° SE 17:27:32 43° ENE 17:32:45 10° N
USA 307 4.0 17:25:45 10° WNW 17:29:18 36° SW 17:31:50 16° SSE
Cosmos 2297 Rocket 4.4 17:25:51 10° WNW 17:29:23 17° NW 17:32:56 10° N
Cosmos 2195 Rocket 4.4 17:25:08 10° S 17:31:27 80° E 17:37:45 10° N
Cosmos 2221 3.8 17:27:58 10° SSE 17:29:58 24° SE 17:29:58 24° SE
Lacrosse 4 Rocket 2.4 17:28:56 10° NW 17:33:07 48° WSW 17:37:10 10° S
Cosmos 676 Rocket 4.2 17:29:05 10° NNW 17:34:13 47° ENE 17:34:52 44° E
USA 276 3.6 17:33:31 10° WSW 17:34:51 28° WSW 17:34:51 28° WSW
CZ-4B R/B 4.2 17:34:43 10° S 17:39:42 54° WSW 17:44:34 10° NNW
NOAA 6 4.3 17:34:43 10° S 17:39:50 70° WSW 17:44:58 10° NNW
Cosmos 1092 Rocket 3.8 17:34:36 10° S 17:40:44 81° E 17:46:54 10° N
Meteor 2-2 Rocket 4.3 17:35:41 10° SSW 17:41:26 82° WNW 17:47:22 10° N
Cosmos 1844 3.9 17:37:27 10° S 17:42:58 48° ESE 17:43:30 47° E
SL-08 R/B 3.1 17:42:13 56° NE 17:43:00 67° ESE 17:47:36 10° S
Cosmos 192 4.3 17:38:37 10° S 17:43:25 60° ESE 17:43:45 58° E
Cosmos 1766 Rocket 4.3 17:43:02 10° N 17:45:48 37° N 17:45:48 37° N
SME Rocket 4.2 17:43:16 10° SSE 17:48:54 74° ENE 17:57:45 10° NNW
ATLAS 2AS CENTAUR R/B 2.6 17:42:20 10° NW 17:49:19 71° NE 17:51:50 40° ESE
YAOGAN 1 3.5 17:51:10 35° N 17:51:10 35° N 17:53:45 10° N
PAYLOAD B 4.5 17:51:25 47° NE 17:51:25 47° NE 17:56:05 10° N
Cosmos 407 Rocket 4.3 17:46:34 10° NNW 17:51:34 51° WSW 17:56:29 10° S
Cosmos 1833 Rocket 4.1 17:46:59 10° NNW 17:49:59 23° NNE 17:49:59 23° NNE
Cosmos 2344 3.4 17:45:47 10° SW 17:53:19 87° SE 17:56:47 35° NE
YAOGAN 3 4.4 17:49:25 10° SSE 17:53:44 88° WSW 17:58:05 10° NNW
SKYMED 2 4.1 17:59:51 33° N 18:01:33 57° WNW 18:05:49 10° SSW
Cosmos 2056 Rocket 3.5 17:58:49 10° S 18:03:48 67° SE 18:03:48 67° SE
Cosmos 1954 Rocket 3.9 18:00:30 10° NNW 18:05:48 88° WSW 18:06:47 60° SSE
Meteor 1-26 Rocket 4.1 18:03:02 10° S 18:08:35 87° E 18:10:05 51° NNE
ADEOS Rocket 4.4 18:12:41 21° N 18:12:41 21° N 18:14:40 10° N
CZ-4B R/B 4.4 18:15:22 29° N 18:15:22 29° N 18:18:09 10° N
Cosmos 1933 4.3 18:10:06 10° SSW 18:13:50 44° W 18:13:50 44° W
Cosmos 1844 Rocket 2.6 18:12:33 10° SSW 18:18:08 84° WNW 18:18:20 82° NNW
Cosmos 2263 Rocket 4.0 18:13:44 10° W 18:18:19 26° NW 18:21:23 16° N
Cosmos 1818 3.8 18:13:42 10° SW 18:19:06 65° NW 18:19:37 61° NNW
USA 234 3.3 18:22:03 58° NNE 18:23:22 73° NNW 18:29:52 10° WSW
Lacrosse 5 2.4 18:18:44 10° SW 18:22:36 53° SW 18:22:36 53° SW
Cosmos 2082 Rocket 4.4 18:22:46 10° N 18:23:38 13° N 18:23:38 13° N
Cosmos 1371 Rocket 4.3 18:23:05 10° SSW 18:27:28 61° SW 18:27:28 61° SW
Timation 2 Rocket 4.2 18:39:57 10° SW 18:45:36 63° WNW 18:45:36 63° WNW
ATLAS 2AS CENTAUR R/B 4.1 19:33:54 10° NW 19:39:19 30° WSW 19:39:19 30° WSW
